sat.trackr.live / text

‹ back to catalog

STARLINK-35594

NORAD 66157 · 2025-240M

PAYLOAD ACTIVE UNKNOWN

§ Identity

Operator
Country
US
Launch date
2025-10-25
Launch site
AFWTR
Launch vehicle
Mass (kg)
RCS (m²)

Purposes: comms

External: N2YO · Heavens-Above · Gunter

§ Orbital elements

Epoch: 2026-09-20T07:29:10.356288Z

Period
93.85 min
Inclination
53.1598°
Eccentricity
0.0001485
Mean motion
15.34407284 rev/d
Perigee alt
461.7 km
Apogee alt
463.7 km
Semi-major
6,840.8 km
B*
4.3087e-4
RAAN
234.7208°
Arg perigee
81.7804°
Mean anomaly
278.3367°
Rev number
5,184

§ Raw data

STARLINK-355941 66157U 25240M   26263.31192542  .00014212  00000+0  43087-3 0  99982 66157  53.1598 234.7208 0001485  81.7804 278.3367 15.34407284 51842

JSON: /api/v1/satellites/66157 · /tle

For live sub-satellite position, see the globe view (requires WebGL).

§ Visibility from observer

Set your observer location to see the next 7 days of passes ≥ 10°. The values pass through the URL so the page stays shareable.

No JS? Fill the form by hand. The geolocation button needs JavaScript.